| time (UTC) | temp F | wind direction | speed MPH | gust MPH | rain 1hr in | rain 24hr in | rain mn in | humidity % | barometer mb |
| 20260505224520 | 77 | 241 | 1.0 | 1.0 | 0.00 | 0.00 | 0.00 | 81 | 1014.0 |
| 20260505224017 | 77 | 286 | 2.0 | 3.0 | 0.00 | 0.00 | 0.00 | 79 | 1013.9 |
| 20260505223514 | 77 | 309 | 2.0 | 3.0 | 0.00 | 0.00 | 0.00 | 81 | 1013.8 |
| 20260505223010 | 77 | 281 | 0.0 | 1.0 | 0.00 | 0.00 | 0.00 | 80 | 1013.8 |
| 20260505222507 | 77 | 278 | 2.0 | 3.0 | 0.00 | 0.00 | 0.00 | 78 | 1013.8 |
| 20260505222003 | 77 | 309 | 2.0 | 3.0 | 0.00 | 0.00 | 0.00 | 78 | 1013.8 |
| 20260505221500 | 77 | 111 | 2.0 | 3.0 | 0.00 | 0.00 | 0.00 | 79 | 1013.9 |
| 20260505220957 | 78 | 356 | 3.0 | 4.0 | 0.00 | 0.00 | 0.00 | 78 | 1013.8 |
| 20260505220454 | 78 | 23 | 4.0 | 4.0 | 0.00 | 0.00 | 0.00 | 79 | 1014.0 |
| 20260505215951 | 78 | 239 | 4.0 | 6.0 | 0.00 | 0.00 | 0.00 | 74 | 1013.9 |
| 20260505215450 | 78 | 334 | 3.0 | 4.0 | 0.00 | 0.00 | 0.00 | 71 | 1013.8 |
| 20260505214947 | 78 | 298 | 3.0 | 3.0 | 0.00 | 0.00 | 0.00 | 72 | 1014.0 |
| 20260505214445 | 78 | 34 | 4.0 | 6.0 | 0.00 | 0.00 | 0.00 | 75 | 1014.1 |
| 20260505213942 | 79 | 223 | 2.0 | 2.0 | 0.00 | 0.00 | 0.00 | 73 | 1014.0 |
| 20260505213440 | 79 | 118 | 1.0 | 2.0 | 0.00 | 0.00 | 0.00 | 73 | 1014.0 |
| 20260505212936 | 78 | 299 | 2.0 | 3.0 | 0.00 | 0.00 | 0.00 | 74 | 1014.0 |
| 20260505212433 | 79 | 30 | 3.0 | 3.0 | 0.00 | 0.00 | 0.00 | 71 | 1014.0 |
| 20260505211928 | 78 | 6 | 7.0 | 10.0 | 0.00 | 0.00 | 0.00 | 74 | 1013.9 |
| 20260505211426 | 78 | 286 | 2.0 | 3.0 | 0.00 | 0.00 | 0.00 | 71 | 1014.0 |
| 20260505210922 | 78 | 3 | 4.0 | 7.0 | 0.00 | 0.00 | 0.00 | 67 | 1013.7 |
| 20260505210423 | 79 | 336 | 4.0 | 6.0 | 0.00 | 0.00 | 0.00 | 65 | 1014.0 |
| 20260505205916 | 79 | 28 | 2.0 | 3.0 | 0.00 | 0.00 | 0.00 | 66 | 1014.0 |
| 20260505205415 | 79 | 73 | 4.0 | 4.0 | 0.00 | 0.00 | 0.00 | 67 | 1014.0 |
| 20260505204912 | 80 | 218 | 3.0 | 4.0 | 0.00 | 0.00 | 0.00 | 67 | 1014.0 |
| 20260505204409 | 79 | 250 | 2.0 | 6.0 | 0.00 | 0.00 | 0.00 | 67 | 1014.0 |
| 20260505203906 | 80 | 337 | 2.0 | 3.0 | 0.00 | 0.00 | 0.00 | 60 | 1014.3 |
| 20260505203403 | 80 | 277 | 3.0 | 3.0 | 0.00 | 0.00 | 0.00 | 68 | 1014.2 |
| 20260505202859 | 79 | 276 | 2.0 | 2.0 | 0.00 | 0.00 | 0.00 | 66 | 1014.3 |
| 20260505202355 | 79 | 345 | 3.0 | 4.0 | 0.00 | 0.00 | 0.00 | 68 | 1014.2 |
| 20260505201852 | 80 | 171 | 4.0 | 6.0 | 0.00 | 0.00 | 0.00 | 64 | 1014.4 |
| 20260505201349 | 81 | 251 | 1.0 | 1.0 | 0.00 | 0.00 | 0.00 | 65 | 1014.4 |
| 20260505200848 | 81 | 53 | 3.0 | 4.0 | 0.00 | 0.00 | 0.00 | 64 | 1014.4 |
| 20260505200344 | 81 | 70 | 3.0 | 6.0 | 0.00 | 0.00 | 0.00 | 63 | 1014.4 |
| 20260505195840 | 80 | 32 | 3.0 | 3.0 | 0.00 | 0.00 | 0.00 | 67 | 1014.4 |
| 20260505195337 | 80 | 136 | 4.0 | 6.0 | 0.00 | 0.00 | 0.00 | 63 | 1014.5 |
| 20260505194834 | 80 | 307 | 2.0 | 2.0 | 0.00 | 0.00 | 0.00 | 65 | 1014.5 |
| 20260505194331 | 80 | 5 | 3.0 | 4.0 | 0.00 | 0.00 | 0.00 | 63 | 1014.6 |
| 20260505193827 | 80 | 246 | 3.0 | 4.0 | 0.00 | 0.00 | 0.00 | 66 | 1014.6 |
| 20260505193325 | 81 | 312 | 3.0 | 4.0 | 0.00 | 0.00 | 0.00 | 67 | 1014.5 |
| 20260505192822 | 81 | 333 | 2.0 | 4.0 | 0.00 | 0.00 | 0.00 | 68 | 1015.1 |
| 20260505192320 | 80 | 265 | 2.0 | 2.0 | 0.00 | 0.00 | 0.00 | 65 | 1014.9 |
| 20260505191817 | 79 | 348 | 2.0 | 3.0 | 0.00 | 0.00 | 0.00 | 68 | 1015.0 |
| 20260505191316 | 79 | 345 | 3.0 | 6.0 | 0.00 | 0.00 | 0.00 | 66 | 1014.9 |
| 20260505190812 | 79 | 65 | 3.0 | 3.0 | 0.00 | 0.00 | 0.00 | 67 | 1015.1 |
| 20260505190308 | 79 | 285 | 0.0 | 1.0 | 0.00 | 0.00 | 0.00 | 69 | 1014.9 |
| 20260505185804 | 79 | 276 | 4.0 | 4.0 | 0.00 | 0.00 | 0.00 | 63 | 1014.7 |
| 20260505185300 | 79 | 14 | 4.0 | 4.0 | 0.00 | 0.00 | 0.00 | 59 | 1014.9 |
| 20260505184756 | 80 | 348 | 5.0 | 7.0 | 0.00 | 0.00 | 0.00 | 59 | 1014.7 |
| 20260505184254 | 80 | 31 | 3.0 | 6.0 | 0.00 | 0.00 | 0.00 | 56 | 1014.9 |
| 20260505183751 | 79 | 106 | 5.0 | 7.0 | 0.00 | 0.00 | 0.00 | 64 | 1014.9 |
| 20260505183248 | 79 | 77 | 6.0 | 8.0 | 0.00 | 0.00 | 0.00 | 61 | 1014.8 |
| 20260505182744 | 81 | 326 | 3.0 | 4.0 | 0.00 | 0.00 | 0.00 | 61 | 1014.9 |
| 20260505182241 | 80 | 4 | 4.0 | 7.0 | 0.00 | 0.00 | 0.00 | 61 | 1015.1 |
| 20260505181737 | 80 | 125 | 1.0 | 2.0 | 0.00 | 0.00 | 0.00 | 62 | 1015.2 |
| 20260505181235 | 80 | 22 | 8.0 | 10.0 | 0.00 | 0.00 | 0.00 | 61 | 1015.3 |
| 20260505180731 | 81 | 300 | 2.0 | 3.0 | 0.00 | 0.00 | 0.00 | 67 | 1015.3 |
| 20260505180228 | 79 | 46 | 3.0 | 4.0 | 0.00 | 0.00 | 0.00 | 69 | 1015.3 |
| 20260505175724 | 80 | 26 | 3.0 | 3.0 | 0.00 | 0.00 | 0.00 | 69 | 1015.3 |
| 20260505175221 | 80 | 43 | 2.0 | 3.0 | 0.00 | 0.00 | 0.00 | 66 | 1015.4 |
| 20260505174718 | 79 | 339 | 2.0 | 3.0 | 0.00 | 0.00 | 0.00 | 69 | 1015.5 |
| 20260505174215 | 80 | 331 | 4.0 | 6.0 | 0.00 | 0.00 | 0.00 | 67 | 1015.4 |
| 20260505173710 | 79 | 195 | 1.0 | 2.0 | 0.00 | 0.00 | 0.00 | 67 | 1015.5 |
| 20260505173208 | 80 | 253 | 3.0 | 3.0 | 0.00 | 0.00 | 0.00 | 67 | 1015.6 |
| 20260505172705 | 79 | 333 | 1.0 | 2.0 | 0.00 | 0.00 | 0.00 | 69 | 1015.4 |
| 20260505172201 | 80 | 358 | 3.0 | 3.0 | 0.00 | 0.00 | 0.00 | 66 | 1015.3 |
| 20260505171701 | 79 | 225 | 1.0 | 2.0 | 0.00 | 0.00 | 0.00 | 66 | 1015.3 |
| 20260505171159 | 79 | 0 | 2.0 | 3.0 | 0.00 | 0.00 | 0.00 | 67 | 1015.3 |
| 20260505170655 | 78 | 309 | 3.0 | 3.0 | 0.00 | 0.00 | 0.00 | 67 | 1015.4 |
| 20260505170152 | 80 | 39 | 3.0 | 6.0 | 0.00 | 0.00 | 0.00 | 66 | 1015.2 |
| 20260505165652 | 79 | 288 | 1.0 | 1.0 | 0.00 | 0.00 | 0.00 | 65 | 1015.3 |
| 20260505165149 | 79 | 18 | 3.0 | 3.0 | 0.00 | 0.00 | 0.00 | 67 | 1015.1 |
| 20260505164644 | 80 | 29 | 5.0 | 7.0 | 0.00 | 0.00 | 0.00 | 65 | 1015.1 |
| 20260505164142 | 78 | 31 | 4.0 | 4.0 | 0.00 | 0.00 | 0.00 | 68 | 1015.2 |
| 20260505163640 | 79 | 353 | 2.0 | 3.0 | 0.00 | 0.00 | 0.00 | 67 | 1015.2 |
| 20260505163138 | 78 | 327 | 2.0 | 4.0 | 0.00 | 0.00 | 0.00 | 68 | 1015.2 |
| 20260505162635 | 79 | 309 | 2.0 | 2.0 | 0.00 | 0.00 | 0.00 | 67 | 1015.3 |
| 20260505162132 | 79 | 287 | 0.0 | 1.0 | 0.00 | 0.00 | 0.00 | 65 | 1015.3 |
| 20260505161629 | 80 | 309 | 3.0 | 3.0 | 0.00 | 0.00 | 0.00 | 64 | 1015.2 |
| 20260505161126 | 79 | 33 | 1.0 | 3.0 | 0.00 | 0.00 | 0.00 | 64 | 1015.3 |
| 20260505160624 | 78 | 59 | 5.0 | 7.0 | 0.00 | 0.00 | 0.00 | 64 | 1015.3 |
| 20260505160121 | 79 | 5 | 4.0 | 6.0 | 0.00 | 0.00 | 0.00 | 64 | 1015.4 |
| 20260505153101 | 78 | 17 | 4.0 | 6.0 | 0.00 | 0.00 | 0.00 | 67 | 1015.4 |
| 20260505152557 | 79 | 292 | 0.0 | 1.0 | 0.00 | 0.00 | 0.00 | 67 | 1015.2 |
| 20260505152053 | 78 | 349 | 2.0 | 3.0 | 0.00 | 0.00 | 0.00 | 69 | 1015.2 |
| 20260505151548 | 78 | 44 | 3.0 | 3.0 | 0.00 | 0.00 | 0.00 | 69 | 1015.4 |
| 20260505151046 | 77 | 339 | 2.0 | 3.0 | 0.00 | 0.00 | 0.00 | 70 | 1015.2 |
| 20260505150542 | 77 | 318 | 2.0 | 3.0 | 0.00 | 0.00 | 0.00 | 71 | 1015.4 |
| 20260505140508 | 73 | 305 | 1.0 | 2.0 | 0.00 | 0.00 | 0.00 | 78 | 1014.9 |
| 20260505124921 | 64 | 327 | 2.0 | 2.0 | 0.00 | 0.00 | 0.00 | 91 | 1015.1 |
| 20260505124418 | 63 | 285 | 1.0 | 2.0 | 0.00 | 0.00 | 0.00 | 91 | 1015.0 |
| 20260505123914 | 63 | 309 | 2.0 | 3.0 | 0.00 | 0.00 | 0.00 | 92 | 1014.9 |
| 20260505123411 | 62 | 289 | 1.0 | 2.0 | 0.00 | 0.00 | 0.00 | 93 | 1014.7 |
| 20260505122906 | 62 | 286 | 2.0 | 3.0 | 0.00 | 0.00 | 0.00 | 92 | 1014.8 |
| 20260505122404 | 61 | 294 | 1.0 | 2.0 | 0.00 | 0.00 | 0.00 | 94 | 1014.9 |
| 20260505121900 | 60 | 288 | 1.0 | 1.0 | 0.00 | 0.00 | 0.00 | 96 | 1014.9 |
| 20260505121357 | 59 | 299 | 0.0 | 0.0 | 0.00 | 0.00 | 0.00 | 99 | 1015.0 |
| 20260505120853 | 58 | 290 | 1.0 | 1.0 | 0.00 | 0.00 | 0.00 | 99 | 1014.9 |
| 20260505120350 | 58 | 275 | 2.0 | 3.0 | 0.00 | 0.00 | 0.00 | 99 | 1014.8 |
| 20260505115848 | 57 | 288 | 1.0 | 1.0 | 0.00 | 0.00 | 0.00 | 99 | 1014.6 |
| 20260505115346 | 56 | 318 | 2.0 | 2.0 | 0.00 | 0.00 | 0.00 | 99 | 1014.8 |
| 20260505114843 | 56 | 301 | 2.0 | 2.0 | 0.00 | 0.00 | 0.00 | 99 | 1014.6 |
| 20260505114340 | 56 | 278 | 0.0 | 1.0 | 0.00 | 0.00 | 0.00 | 99 | 1014.6 |
| 20260505113836 | 55 | 319 | 1.0 | 2.0 | 0.00 | 0.00 | 0.00 | 99 | 1014.5 |
| 20260505113333 | 55 | 277 | 0.0 | 0.0 | 0.00 | 0.00 | 0.00 | 99 | 1014.4 |
| 20260505112828 | 55 | 277 | 0.0 | 0.0 | 0.00 | 0.00 | 0.00 | 99 | 1014.4 |
| 20260505112326 | 55 | 294 | 0.0 | 1.0 | 0.00 | 0.00 | 0.00 | 99 | 1014.3 |
| 20260505111822 | 54 | 283 | 1.0 | 1.0 | 0.00 | 0.00 | 0.00 | 99 | 1014.1 |
| 20260505111317 | 54 | 276 | 0.0 | 1.0 | 0.00 | 0.00 | 0.00 | 99 | 1014.4 |
| 20260505110814 | 54 | 276 | 2.0 | 2.0 | 0.00 | 0.00 | 0.00 | 99 | 1014.1 |
| 20260505110311 | 54 | 272 | 0.0 | 1.0 | 0.00 | 0.00 | 0.00 | 99 | 1014.2 |
| 20260505101745 | 54 | 301 | 2.0 | 3.0 | 0.00 | 0.00 | 0.00 | 99 | 1014.0 |
| 20260505101241 | 55 | 274 | 0.0 | 0.0 | 0.00 | 0.00 | 0.00 | 99 | 1014.0 |
| 20260505100738 | 54 | 274 | 0.0 | 0.0 | 0.00 | 0.00 | 0.00 | 99 | 1013.7 |
| 20260505100234 | 54 | 278 | 0.0 | 0.0 | 0.00 | 0.00 | 0.00 | 99 | 1014.1 |
| 20260505095730 | 54 | 276 | 0.0 | 0.0 | 0.00 | 0.00 | 0.00 | 99 | 1013.8 |
| 20260505095228 | 54 | 279 | 0.0 | 0.0 | 0.00 | 0.00 | 0.00 | 99 | 1013.6 |
| 20260505094723 | 54 | 280 | 0.0 | 0.0 | 0.00 | 0.00 | 0.00 | 99 | 1013.6 |
| 20260505094220 | 53 | 277 | 0.0 | 0.0 | 0.00 | 0.00 | 0.00 | 99 | 1013.5 |
| 20260505093716 | 53 | 277 | 0.0 | 0.0 | 0.00 | 0.00 | 0.00 | 99 | 1013.5 |
| 20260505093214 | 53 | 277 | 0.0 | 0.0 | 0.00 | 0.00 | 0.00 | 99 | 1013.5 |
| 20260505092710 | 53 | 276 | 0.0 | 0.0 | 0.00 | 0.00 | 0.00 | 99 | 1013.4 |
| 20260505092210 | 53 | 276 | 0.0 | 0.0 | 0.00 | 0.00 | 0.00 | 99 | 1013.5 |
| 20260505091706 | 53 | 277 | 0.0 | 0.0 | 0.00 | 0.00 | 0.00 | 99 | 1013.6 |
| 20260505091204 | 52 | 278 | 0.0 | 0.0 | 0.00 | 0.00 | 0.00 | 99 | 1013.4 |
| 20260505090701 | 52 | 284 | 0.0 | 1.0 | 0.00 | 0.00 | 0.00 | 99 | 1013.5 |
| 20260505090159 | 51 | 253 | 0.0 | 0.0 | 0.00 | 0.00 | 0.00 | 99 | 1013.7 |
| 20260505085657 | 52 | 253 | 0.0 | 0.0 | 0.00 | 0.00 | 0.00 | 99 | 1013.4 |
| 20260505085155 | 52 | 253 | 0.0 | 0.0 | 0.00 | 0.00 | 0.00 | 99 | 1013.5 |